Regional Weather Roundup
Issued by NWS Cleveland, OH

Home | Current Version | Previous Version | Graphics & Text | Print | Product List | Glossary On
Versions: 1 2 3 4 5 6 7 8 9 10 11 12 13 14 15 16 17 18 19 20 21 22 23 24 25 26 27 28 29 30 31 32 33 34 35 36 37 38 39 40 41 42 43 44 45 46 47 48 49 50
000
ASUS41 KCLE 061800
RWRCLE
OHIO REGIONAL WEATHER ROUNDUP
NATIONAL WEATHER SERVICE WILMINGTON, OH
100 PM EST FRI MAR 06 2015

NOTE: "FAIR" INDICATES FEW OR NO CLOUDS BELOW 12,000 FEET WITH NO
SIGNIFICANT WEATHER AND/OR OBSTRUCTIONS TO VISIBILITY.

OHZ001>008-015>018-024>027-034-035-043-044-061900-
   NORTHWEST OHIO

CITY           SKY/WX    TMP DP  RH WIND       PRES   REMARKS
DEFIANCE       FAIR      18   7  62 S14       30.44F WCI   4
FINDLAY        FAIR      21   8  57 SW16      30.45F WCI   7
TOLEDO EXPRESS FAIR      18   4  54 SW15G24   30.44F WCI   4
TOLEDO EXEC    FAIR      19   7  59 SW18G25   30.46F WCI   4
LIMA           FAIR      21   9  59 SW15      30.45F WCI   8
$$

OHZ009>014-019>023-028>033-038-089-061900-
   NORTHEAST OHIO

CITY           SKY/WX    TMP DP  RH WIND       PRES   REMARKS
CLE-HOPKINS    PTSUNNY   21   7  54 SW15      30.48F WCI   8
CLE-LAKEFRONT  PTSUNNY   22   7  52 SW14G23   30.46F WCI   9
CUY CO. ARPT   PTSUNNY   25   7  46 SW14      30.45F WCI  13
LORAIN-ELYRIA  FAIR      20   8  60 SW16G23   30.46F WCI   6
ASHTABULA      FAIR      20   3  48 SW13      30.45F WCI   7
AKRON-CANTON   FAIR      20   4  50 SW9       30.44F WCI   9
WOOSTER        NOT AVBL
MANSFIELD      FAIR      20   8  60 S13       30.43F WCI   7
YOUNGSTOWN     CLOUDY    19   4  51 SW14G20   30.44F WCI   6
$$

OHZ042-051>053-060>062-070>072-077>081-061900-
  SOUTHWEST OHIO

CITY           SKY/WX    TMP DP  RH WIND       PRES   REMARKS
CINC-COVINGTON FAIR      23  10  57 S10G16    30.51F WCI  12
CINC-LUNKEN    FAIR      22   8  55 S8        30.55F WCI  12
HAMILTON       FAIR      26   8  46 VRB6      30.53F WCI  19
DAYTON         NOT AVBL
WRIGHT-PAT AFB NOT AVBL
DAYTON GENERAL FAIR      22   8  55 S12       30.47F WCI  10
WILMINGTON     FAIR      19   5  54 S10       30.49F WCI   7
$$

OHZ036-037-039>041-045>050-054>059-063>069-073>076-082>088-061900-
  CENTRAL AND SOUTHEAST OHIO

CITY           SKY/WX    TMP DP  RH WIND       PRES   REMARKS
COLUMBUS       PTSUNNY   19   5  54 S10       30.51F WCI   7
OSU AIRPORT    FAIR      21   6  52 SW14G24   30.50S WCI   8
BOLTON FIELD   SUNNY     21   9  58 SW9       30.51F WCI  11
RICKENBACK AFB NOT AVBL
NEWARK         FAIR      19   6  57 SW8       30.49F WCI   9
MARION         FAIR      20   9  62 SW15      30.47F WCI   6
LANCASTER      FAIR      19   6  57 SW8       30.51F WCI   9
ZANESVILLE     FAIR      19   4  51 S7        30.50F WCI  10
NEW PHILLY     FAIR      22   5  48 W6        30.49F WCI  14
$$


USA.gov is the U.S. government's official web portal to all federal, state and local government web resources and services.